Time,TemperatureF,DewpointF,PressureIn,WindDirection,WindDirectionDegrees,WindSpeedMPH,WindSpeedGustMPH,Humidity,HourlyPrecipIn,Conditions,Clouds,dailyrainin,SoftwareType,DateUTC
2013-03-04 00:00:00,19.0,7.0,-100.00,NE,54,5.0,9.0,58,0.00,,,0.07,,2013-03-04 05:00:00,
2013-03-04 00:32:00,19.0,7.0,-100.00,NE,54,5.0,9.0,58,0.00,,,0.07,,2013-03-04 05:32:00,
2013-03-04 00:42:00,19.0,7.0,-100.00,NE,54,5.0,9.0,58,0.00,,,0.07,,2013-03-04 05:42:00,
2013-03-04 00:52:00,19.0,7.0,-100.00,NE,54,5.0,9.0,58,0.00,,,0.07,,2013-03-04 05:52:00,
2013-03-04 01:00:00,19.0,6.0,-100.00,NE,54,6.0,10.0,57,-99.99,,,0.07,,2013-03-04 06:00:00,
2013-03-04 01:32:00,19.0,6.0,-100.00,NE,54,6.0,10.0,57,-99.99,,,0.07,,2013-03-04 06:32:00,
2013-03-04 01:42:00,19.0,6.0,-100.00,NE,54,6.0,10.0,57,-99.99,,,0.07,,2013-03-04 06:42:00,
2013-03-04 01:52:00,19.0,6.0,-100.00,NE,54,6.0,10.0,57,-99.99,,,0.07,,2013-03-04 06:52:00,
2013-03-04 02:00:00,19.0,6.0,-100.00,ENE,63,5.0,9.0,57,0.00,,,0.07,,2013-03-04 07:00:00,
2013-03-04 02:32:00,19.0,6.0,-100.00,ENE,63,5.0,9.0,57,0.00,,,0.07,,2013-03-04 07:32:00,
2013-03-04 02:42:00,19.0,6.0,-100.00,ENE,63,5.0,9.0,57,0.00,,,0.07,,2013-03-04 07:42:00,
2013-03-04 02:52:00,19.0,6.0,-100.00,ENE,63,5.0,9.0,57,0.00,,,0.07,,2013-03-04 07:52:00,
2013-03-04 03:00:00,19.0,6.0,-100.00,ENE,64,5.0,9.0,57,0.00,,,0.07,,2013-03-04 08:00:00,
2013-03-04 03:32:00,19.0,6.0,-100.00,ENE,64,5.0,9.0,57,0.00,,,0.07,,2013-03-04 08:32:00,
2013-03-04 03:42:00,19.0,6.0,-100.00,ENE,64,5.0,9.0,57,0.00,,,0.07,,2013-03-04 08:42:00,
2013-03-04 03:52:00,19.0,6.0,-100.00,ENE,64,5.0,9.0,57,0.00,,,0.07,,2013-03-04 08:52:00,
2013-03-04 04:00:00,18.0,6.0,-100.00,ENE,63,5.0,8.0,59,-99.99,,,0.07,,2013-03-04 09:00:00,
2013-03-04 04:32:00,18.0,6.0,-100.00,ENE,63,5.0,8.0,59,-99.99,,,0.07,,2013-03-04 09:32:00,
2013-03-04 04:42:00,18.0,6.0,-100.00,ENE,63,5.0,8.0,59,-99.99,,,0.07,,2013-03-04 09:42:00,
2013-03-04 04:52:00,18.0,6.0,-100.00,ENE,63,5.0,8.0,59,-99.99,,,0.07,,2013-03-04 09:52:00,
2013-03-04 05:00:00,17.0,6.0,-100.00,ENE,66,4.0,8.0,61,-99.99,,,0.07,,2013-03-04 10:00:00,
2013-03-04 05:32:00,17.0,6.0,-100.00,ENE,66,4.0,8.0,61,-99.99,,,0.07,,2013-03-04 10:32:00,
2013-03-04 05:42:00,17.0,6.0,-100.00,ENE,66,4.0,8.0,61,-99.99,,,0.07,,2013-03-04 10:42:00,
2013-03-04 05:52:00,17.0,6.0,-100.00,ENE,66,4.0,8.0,61,-99.99,,,0.07,,2013-03-04 10:52:00,
2013-03-04 06:00:00,20.0,7.0,-100.00,East,82,5.0,10.0,56,-99.99,,,0.07,,2013-03-04 11:00:00,
2013-03-04 06:32:00,20.0,7.0,-100.00,East,82,5.0,10.0,56,-99.99,,,0.07,,2013-03-04 11:32:00,
2013-03-04 06:42:00,20.0,7.0,-100.00,East,82,5.0,10.0,56,-99.99,,,0.07,,2013-03-04 11:42:00,
2013-03-04 06:52:00,20.0,7.0,-100.00,East,82,5.0,10.0,56,-99.99,,,0.07,,2013-03-04 11:52:00,
2013-03-04 07:00:00,17.0,7.0,-100.00,ENE,72,4.0,11.0,63,0.00,,,0.07,,2013-03-04 12:00:00,
2013-03-04 07:32:00,17.0,7.0,-100.00,ENE,72,4.0,11.0,63,0.00,,,0.07,,2013-03-04 12:32:00,
2013-03-04 07:42:00,17.0,7.0,-100.00,ENE,72,4.0,11.0,63,0.00,,,0.07,,2013-03-04 12:42:00,
2013-03-04 07:53:00,17.0,7.0,-100.00,ENE,72,4.0,11.0,63,0.00,,,0.07,,2013-03-04 12:53:00,
2013-03-04 08:00:00,17.0,6.0,-100.00,ENE,74,4.0,8.0,62,-99.99,,,0.07,,2013-03-04 13:00:00,
2013-03-04 08:32:00,17.0,6.0,-100.00,ENE,74,4.0,8.0,62,-99.99,,,0.07,,2013-03-04 13:32:00,
2013-03-04 08:42:00,17.0,6.0,-100.00,ENE,74,4.0,8.0,62,-99.99,,,0.07,,2013-03-04 13:42:00,
2013-03-04 08:52:00,17.0,6.0,-100.00,ENE,74,4.0,8.0,62,-99.99,,,0.07,,2013-03-04 13:52:00,
2013-03-04 09:00:00,16.0,6.0,-100.00,ENE,70,4.0,7.0,64,-99.99,,,0.07,,2013-03-04 14:00:00,
2013-03-04 09:32:00,16.0,6.0,-100.00,ENE,70,4.0,7.0,64,-99.99,,,0.07,,2013-03-04 14:32:00,
2013-03-04 09:42:00,16.0,6.0,-100.00,ENE,70,4.0,7.0,64,-99.99,,,0.07,,2013-03-04 14:42:00,
2013-03-04 09:52:00,16.0,6.0,-100.00,ENE,70,4.0,7.0,64,-99.99,,,0.07,,2013-03-04 14:52:00,
2013-03-04 10:00:00,16.0,6.0,-100.00,ENE,64,4.0,7.0,63,0.00,,,0.07,,2013-03-04 15:00:00,
2013-03-04 10:32:00,16.0,6.0,-100.00,ENE,64,4.0,7.0,63,0.00,,,0.07,,2013-03-04 15:32:00,
2013-03-04 10:42:00,16.0,6.0,-100.00,ENE,64,4.0,7.0,63,0.00,,,0.07,,2013-03-04 15:42:00,
2013-03-04 10:52:00,16.0,6.0,-100.00,ENE,64,4.0,7.0,63,0.00,,,0.07,,2013-03-04 15:52:00,
2013-03-04 11:00:00,16.0,6.0,-100.00,ENE,59,3.0,7.0,64,0.00,,,0.07,,2013-03-04 16:00:00,
2013-03-04 11:32:00,16.0,6.0,-100.00,ENE,59,3.0,7.0,64,0.00,,,0.07,,2013-03-04 16:32:00,
2013-03-04 11:42:00,16.0,6.0,-100.00,ENE,59,3.0,7.0,64,0.00,,,0.07,,2013-03-04 16:42:00,
2013-03-04 11:52:00,16.0,6.0,-100.00,ENE,59,3.0,7.0,64,0.00,,,0.07,,2013-03-04 16:52:00,
2013-03-04 12:00:00,17.0,6.0,-100.00,ENE,69,4.0,7.0,62,-99.99,,,0.07,,2013-03-04 17:00:00,
2013-03-04 12:32:00,17.0,6.0,-100.00,ENE,69,4.0,7.0,62,-99.99,,,0.07,,2013-03-04 17:32:00,
2013-03-04 12:42:00,17.0,6.0,-100.00,ENE,69,4.0,7.0,62,-99.99,,,0.07,,2013-03-04 17:42:00,
2013-03-04 12:52:00,17.0,6.0,-100.00,ENE,69,4.0,7.0,62,-99.99,,,0.07,,2013-03-04 17:52:00,
2013-03-04 13:00:00,21.0,8.0,-100.00,ENE,78,4.0,6.0,56,0.00,,,0.07,,2013-03-04 18:00:00,
2013-03-04 13:32:00,21.0,8.0,-100.00,ENE,78,4.0,6.0,56,0.00,,,0.07,,2013-03-04 18:32:00,
2013-03-04 13:42:00,21.0,8.0,-100.00,ENE,78,4.0,6.0,56,0.00,,,0.07,,2013-03-04 18:42:00,
2013-03-04 13:52:00,21.0,8.0,-100.00,ENE,78,4.0,6.0,56,0.00,,,0.07,,2013-03-04 18:52:00,
2013-03-04 14:00:00,26.0,8.0,-100.00,East,85,4.0,7.0,47,-99.99,,,0.07,,2013-03-04 19:00:00,
2013-03-04 14:32:00,26.0,8.0,-100.00,East,85,4.0,7.0,47,-99.99,,,0.07,,2013-03-04 19:32:00,
2013-03-04 14:42:00,26.0,8.0,-100.00,East,85,4.0,7.0,47,-99.99,,,0.07,,2013-03-04 19:42:00,
2013-03-04 14:52:00,26.0,8.0,-100.00,East,85,4.0,7.0,47,-99.99,,,0.07,,2013-03-04 19:52:00,
2013-03-04 15:00:00,29.0,9.0,-100.00,East,92,4.0,8.0,42,-99.99,,,0.07,,2013-03-04 20:00:00,
2013-03-04 15:32:00,29.0,9.0,-100.00,East,92,4.0,8.0,42,-99.99,,,0.07,,2013-03-04 20:32:00,
2013-03-04 15:42:00,29.0,9.0,-100.00,East,92,4.0,8.0,42,-99.99,,,0.07,,2013-03-04 20:42:00,
2013-03-04 15:52:00,29.0,9.0,-100.00,East,92,4.0,8.0,42,-99.99,,,0.07,,2013-03-04 20:52:00,
2013-03-04 16:00:00,31.0,8.0,-100.00,East,89,5.0,10.0,38,0.02,,,-99.99,,2013-03-04 21:00:00,
2013-03-04 16:32:00,31.0,8.0,-100.00,East,89,5.0,10.0,38,0.02,,,-99.99,,2013-03-04 21:32:00,
2013-03-04 16:43:00,31.0,8.0,-100.00,East,89,5.0,10.0,38,0.02,,,-99.99,,2013-03-04 21:43:00,
2013-03-04 16:52:00,31.0,8.0,-100.00,East,89,5.0,10.0,38,0.02,,,-99.99,,2013-03-04 21:52:00,
2013-03-04 17:00:00,31.0,9.0,-100.00,East,82,5.0,10.0,39,0.04,,,0.09,,2013-03-04 22:00:00,
2013-03-04 17:32:00,31.0,9.0,-100.00,East,82,5.0,10.0,39,0.04,,,0.09,,2013-03-04 22:32:00,
2013-03-04 17:42:00,31.0,9.0,-100.00,East,82,5.0,10.0,39,0.04,,,0.09,,2013-03-04 22:42:00,
2013-03-04 17:52:00,31.0,9.0,-100.00,East,82,5.0,10.0,39,0.04,,,0.09,,2013-03-04 22:52:00,
2013-03-04 18:00:00,31.0,9.0,-100.00,ENE,74,4.0,9.0,40,0.04,,,0.11,,2013-03-04 23:00:00,
2013-03-04 18:32:00,31.0,9.0,-100.00,ENE,74,4.0,9.0,40,0.04,,,0.11,,2013-03-04 23:32:00,
2013-03-04 18:42:00,31.0,9.0,-100.00,ENE,74,4.0,9.0,40,0.04,,,0.11,,2013-03-04 23:42:00,
2013-03-04 18:52:00,31.0,9.0,-100.00,ENE,74,4.0,9.0,40,0.04,,,0.11,,2013-03-04 23:52:00,
2013-03-04 19:00:00,30.0,8.0,-100.00,East,93,3.0,7.0,40,0.01,,,0.11,,2013-03-05 00:00:00,
2013-03-04 19:32:00,30.0,8.0,-100.00,East,93,3.0,7.0,40,0.01,,,0.11,,2013-03-05 00:32:00,
2013-03-04 19:42:00,30.0,8.0,-100.00,East,93,3.0,7.0,40,0.01,,,0.11,,2013-03-05 00:42:00,
2013-03-04 19:52:00,30.0,8.0,-100.00,East,93,3.0,7.0,40,0.01,,,0.11,,2013-03-05 00:52:00,
2013-03-04 20:00:00,29.0,7.0,-100.00,East,82,3.0,7.0,40,0.00,,,0.11,,2013-03-05 01:00:00,
2013-03-04 20:33:00,29.0,7.0,-100.00,East,82,3.0,7.0,40,0.00,,,0.11,,2013-03-05 01:33:00,
2013-03-04 20:42:00,29.0,7.0,-100.00,East,82,3.0,7.0,40,0.00,,,0.11,,2013-03-05 01:42:00,
2013-03-04 20:52:00,29.0,7.0,-100.00,East,82,3.0,7.0,40,0.00,,,0.11,,2013-03-05 01:52:00,
2013-03-04 21:00:00,26.0,8.0,-100.00,NE,53,2.0,5.0,47,0.00,,,0.11,,2013-03-05 02:00:00,
2013-03-04 21:32:00,26.0,8.0,-100.00,NE,53,2.0,5.0,47,0.00,,,0.11,,2013-03-05 02:32:00,
2013-03-04 21:42:00,26.0,8.0,-100.00,NE,53,2.0,5.0,47,0.00,,,0.11,,2013-03-05 02:42:00,
2013-03-04 21:52:00,26.0,8.0,-100.00,NE,53,2.0,5.0,47,0.00,,,0.11,,2013-03-05 02:52:00,
2013-03-04 22:00:00,24.0,6.0,-100.00,NE,44,4.0,7.0,46,0.00,,,0.11,,2013-03-05 03:00:00,
2013-03-04 22:32:00,24.0,6.0,-100.00,NE,44,4.0,7.0,46,0.00,,,0.11,,2013-03-05 03:32:00,
2013-03-04 22:42:00,24.0,6.0,-100.00,NE,44,4.0,7.0,46,0.00,,,0.11,,2013-03-05 03:42:00,
2013-03-04 22:52:00,24.0,6.0,-100.00,NE,44,4.0,7.0,46,0.00,,,0.11,,2013-03-05 03:52:00,
2013-03-04 23:00:00,24.0,6.0,-100.00,NNE,32,5.0,10.0,46,0.00,,,0.11,,2013-03-05 04:00:00,
2013-03-04 23:32:00,24.0,6.0,-100.00,NNE,32,5.0,10.0,46,0.00,,,0.11,,2013-03-05 04:32:00,
2013-03-04 23:42:00,24.0,6.0,-100.00,NNE,32,5.0,10.0,46,0.00,,,0.11,,2013-03-05 04:42:00,
2013-03-04 23:52:00,24.0,6.0,-100.00,NNE,32,5.0,10.0,46,0.00,,,0.11,,2013-03-05 04:52:00,